Starlink 4368

operational
NORAD ID: 53234 Int'l Des: 2022-084 Owner: SPXS Country: US Constellation: starlink
LEOCIRCULARRETROGRADESSO

About Starlink 4368

Description loading...

Live Position

Loading 3D Globe...

Upcoming Passes

Altitude History

Altitude vs Time

uPlot chart will show altitude changes over time

Two-Line Element Set

1 53234U 22084AX 26062.11766884 .00000801 00000-0 66855-4 0 9993
2 53234 97.6046 123.7740 0000824 144.9350 215.1929 15.01262781199343
Epoch: Mar 3, 2026 • Age: 19 hours

Current Status

Altitude 574.2 km
Velocity 7.58 km/s
Sub-Earth Point 65.82°N, 18.91°E
Launch Date Jul 22, 2022
Age 3.6 years
Type internet

Technical Details

Classification Payload
Mass 297.00 kg
Dry Mass 275.00 kg
Total Mass 297.00 kg
Length 0.20 m
Diameter 2.80 m
Span 9.00 m
Shape Box + pan
Manufacturer SPXS
Bus Type Starlink
Phase Status In Orbit
Owner/State SPXS/US

Large Constellations

Loading constellations...